Cloud_Cover
5 50 42 0 0 5 13 97 100 100 100 88 2 3 5 52 100 98 19 4 3 5
21 54 51 0 0 0 1 95 100 100 100 100 100 8 0 4 95 100 100 19 24 20
6 10 5 97 3 5 0 100 100 100 100 100 100 97 1 4 5 18 100 93 9 6
32 66 100 100 8 41 13 53 100 100 100 100 100 100 32 4 5 5 14 100 18 5
89 93 100 100 3 2 99 7 77 100 100 100 100 100 100 94 5 5 0 0 3 5
99 96 100 100 7 5 58 12 36 10 18 93 100 90 100 100 100 100 63 12 0 1
100 64 93 53 45 5 3 4 32 57 15 5 6 26 5 85 99 95 44 18 100 68
100 100 58 78 47 5 36 48 48 51 100 92 5 5 5 13 74 97 100 99 100 100
100 99 25 49 22 5 5 5 97 56 100 100 100 99 76 5 7 66 74 92 94 100
100 100 98 97 100 47 16 5 43 71 8 99 100 73 71 98 96 100 96 100 100 82
100 100 100 100 100 86 98 18 18 97 26 9 55 95 100 100 100 100 100 94 81 52
100 100 100 100 100 98 58 98 100 95 100 100 74 100 100 100 100 70 55 18 5 4
85 100 100 100 100 100 100 100 100 92 100 100 100 98 96 100 100 100 100 99 37 98
100 100 100 100 100 100 100 100 100 96 100 100 100 100 100 100 98 100 91 100 100 100